Back to catalog

JILIN-01 GAOFEN 3F

AliveScienceSSO
NORAD 46458·PAYLOAD·🇨🇳 China

Launched Sep 15, 2020 from Yellow Sea Launch Area

Loading…

Next Passes (next 24 hours)

TLE

FreshSource: Space-Track

Epoch: Sep 14, 2026, 13:59 UTC

1 46458U 20065E   26257.58281024  .00075751  00000-0  58691-3 0  9999
2 46458  97.2051 309.7578 0010665 166.0977 194.0583 15.71545685333697

Track JILIN-01 GAOFEN 3F in real time with AllMySat

Download on the App Store